User: anonymous   Login
Location: Bazugues
(43.4465°N, 0.3432°E)
Time: 13:59:43
(UTC+00:00)
Language:

YAOGAN 1 - Orbit

View from above orbital plane
View from above orbital plane
View from above satellite
View from above satellite

Ground track
Ground track

The orbit is defined by the following mean orbital elements,

1 29092U          26071.64652471 +.00000000 +00000-0 +13296-3 0 00000
2 29092  97.7552  94.8142 0001495  94.5751 265.5637 14.87592543    09
Epoch (UTC): 12 March 2026 15:30:59
Eccentricity: 0.0001495
inclination: 97.7552°
perigee height: 604 km
apogee height: 607 km
right ascension of ascending node: 94.8142°
argument of perigee: 94.5751°
revolutions per day: 14.87592543
mean anomaly at epoch: 265.5637°

The dashed part of the orbit path shows where the satellite is in the earth's shadow,  

DLR